Dilworth, MN

9:45 PM CST on February 25, 2017 (GMT -0600)
Moorhead Municipal

Weather History for KJKJ - March, 2014

Change the Weather History Date:

Sunday, March 30, 2014

  Actual Average (KFAR) Record (KFAR)
Temperature  
Mean Temperature 42 °F -  
Max Temperature 50 °F 43 °F 78 °F (1967)
Min Temperature 35 °F 24 °F -14 °F (1969)
Degree Days  
Heating Degree Days 22    
Moisture  
Dew Point 37 °F    
Average Humidity 87    
Maximum Humidity 100    
Minimum Humidity 66    
Precipitation  
Precipitation 0.00 in - - ()
Sea Level Pressure  
Sea Level Pressure 29.81 in    
Wind  
Wind Speed 12 mph (ENE)    
Max Wind Speed 21 mph    
Max Gust Speed 25 mph    
Visibility 10 miles    
Events      
Averages and records for this station are not official NWS values.
T = Trace of Precipitation, MM = Missing Value Source: NWS Daily Summary

Daily Weather History Graph

Daily Weather History Graph

Search for Another Location

Airport or City:

Trip Planner

Search our weather history database for the weather conditions in past years. The results will help you decide how hot, cold, wet, or windy it might be!

Date:

Astronomy

Mar. 30, 2014 Rise Set
Actual Time 7:09 AM CDT 7:53 PM CDT
Civil Twilight 6:39 AM CDT 8:23 PM CDT
Nautical Twilight 6:02 AM CDT 9:00 PM CDT
Astronomical Twilight 5:24 AM CDT 9:38 PM CDT
Moon 6:56 AM CDT (3/30) 8:09 PM CDT (3/30)
Length of Visible Light 13h 44m
Length of Day
12h 43m
Waning Crescent, 0% of the Moon is Illuminated
Mar 30
Waning Crescent
Mar 30
New
Apr 7
First Quarter
Apr 15
Full
Apr 22
Last Quarter

Hourly Weather History & Observations

Time (CDT) Temp. Windchill Dew Point Humidity Pressure Visibility Wind Dir Wind Speed Gust Speed Precip Events Conditions
12:01 AM 39.2 °F 30.2 °F 35.6 °F 87% 29.80 in 10.0 mi SSE 17.3 mph 25.3 mph N/A   Clear
12:21 AM 39.2 °F 30.2 °F 35.6 °F 87% 29.79 in 10.0 mi SSE 17.3 mph 23.0 mph N/A   Clear
12:41 AM 39.2 °F 30.8 °F 35.6 °F 87% 29.79 in 10.0 mi SSE 15.0 mph 21.9 mph N/A   Clear
1:01 AM 39.2 °F 31.2 °F 35.6 °F 87% 29.79 in 10.0 mi South 13.8 mph - N/A   Clear
1:21 AM 39.2 °F 30.8 °F 35.6 °F 87% 29.77 in 10.0 mi SSE 15.0 mph - N/A   Clear
1:41 AM 39.2 °F 30.8 °F 35.6 °F 87% 29.77 in 10.0 mi SSE 15.0 mph - N/A   Clear
2:21 AM 39.2 °F 33.6 °F 35.6 °F 87% 29.77 in 10.0 mi South 8.1 mph - N/A   Clear
2:41 AM 37.4 °F 30.3 °F 35.6 °F 93% 29.77 in 10.0 mi SSE 10.4 mph 16.1 mph N/A   Clear
3:01 AM 37.4 °F 30.8 °F 35.6 °F 93% 29.76 in 10.0 mi South 9.2 mph - N/A   Clear
3:21 AM 37.4 °F 30.8 °F 35.6 °F 93% 29.77 in 10.0 mi SSE 9.2 mph - N/A   Clear
3:41 AM 37.4 °F 32.8 °F 35.6 °F 93% 29.76 in 10.0 mi South 5.8 mph - N/A   Clear
4:01 AM 37.4 °F 32.1 °F 35.6 °F 93% 29.77 in 10.0 mi South 6.9 mph - N/A   Clear
4:21 AM 37.4 °F 30.8 °F 33.8 °F 87% 29.76 in 10.0 mi South 9.2 mph - N/A   Clear
4:41 AM 35.6 °F 30.7 °F 33.8 °F 93% 29.76 in 10.0 mi South 5.8 mph - N/A   Clear
5:01 AM 35.6 °F 29.2 °F 33.8 °F 93% 29.76 in 10.0 mi SSE 8.1 mph - N/A   Clear
5:21 AM 35.6 °F 28.0 °F 33.8 °F 93% 29.74 in 10.0 mi SSE 10.4 mph - N/A   Clear
5:41 AM 35.6 °F 28.6 °F 33.8 °F 93% 29.74 in 10.0 mi SSE 9.2 mph - N/A   Clear
6:01 AM 35.6 °F 28.6 °F 33.8 °F 93% 29.74 in 10.0 mi SSE 9.2 mph - N/A   Clear
6:21 AM 35.6 °F 27.5 °F 33.8 °F 93% 29.74 in 10.0 mi SSE 11.5 mph - N/A   Scattered Clouds
6:41 AM 35.6 °F 29.9 °F 33.8 °F 93% 29.75 in 10.0 mi SSE 6.9 mph - N/A   Scattered Clouds
7:01 AM 35.6 °F 29.9 °F 33.8 °F 93% 29.77 in 10.0 mi SSE 6.9 mph - N/A   Mostly Cloudy
7:21 AM 35.6 °F 30.7 °F 33.8 °F 93% 29.77 in 7.0 mi South 5.8 mph - N/A   Mostly Cloudy
7:41 AM 35.6 °F 30.7 °F 33.8 °F 93% 29.79 in 7.0 mi South 5.8 mph - N/A   Scattered Clouds
8:01 AM 35.6 °F 30.7 °F 33.8 °F 93% 29.79 in 7.0 mi South 5.8 mph - N/A   Scattered Clouds
8:41 AM 35.6 °F 29.9 °F 35.6 °F 100% 29.81 in 7.0 mi South 6.9 mph - N/A   Clear
9:01 AM 37.4 °F 32.8 °F 35.6 °F 93% 29.80 in 7.0 mi South 5.8 mph - N/A   Clear
9:21 AM 37.4 °F 33.8 °F 35.6 °F 93% 29.80 in 10.0 mi South 4.6 mph - N/A   Clear
9:41 AM 39.2 °F 35.9 °F 35.6 °F 87% 29.81 in 7.0 mi South 4.6 mph - N/A   Clear
10:01 AM 39.2 °F 37.0 °F 35.6 °F 87% 29.81 in 7.0 mi SSW 3.5 mph - N/A   Clear
10:21 AM 41.0 °F - 35.6 °F 81% 29.81 in 10.0 mi SSW 1.2 mph - N/A   Clear
10:41 AM 42.8 °F - 37.4 °F 81% 29.82 in 10.0 mi WNW 1.2 mph - N/A   Clear
11:21 AM 46.4 °F 43.5 °F 37.4 °F 71% 29.82 in 10.0 mi NNE 5.8 mph - N/A   Clear
11:41 AM 46.4 °F 42.9 °F 37.4 °F 71% 29.83 in 10.0 mi North 6.9 mph - N/A   Clear
12:01 PM 48.2 °F - 37.4 °F 66% 29.84 in 10.0 mi North 9.2 mph - N/A   Clear
12:21 PM 48.2 °F - 39.2 °F 71% 29.85 in 10.0 mi North 8.1 mph - N/A   Clear
12:41 PM 48.2 °F - 39.2 °F 71% 29.85 in 10.0 mi NNE 9.2 mph - N/A   Clear
1:01 PM 48.2 °F - 39.2 °F 71% 29.85 in 10.0 mi NNE 8.1 mph - N/A   Clear
1:21 PM 50.0 °F - 39.2 °F 66% 29.84 in 10.0 mi North 12.7 mph - N/A   Clear
2:01 PM 50.0 °F - 39.2 °F 66% 29.84 in 10.0 mi North 15.0 mph - N/A   Clear
2:21 PM 50.0 °F - 39.2 °F 66% 29.84 in 10.0 mi North 15.0 mph - N/A   Clear
2:41 PM 48.2 °F - 41.0 °F 76% 29.83 in 10.0 mi North 15.0 mph - N/A   Clear
3:01 PM 48.2 °F - 39.2 °F 71% 29.83 in 10.0 mi North 16.1 mph - N/A   Clear
3:21 PM 48.2 °F - 41.0 °F 76% 29.83 in 10.0 mi North 13.8 mph 19.6 mph N/A   Clear
4:01 PM 48.2 °F - 39.2 °F 71% 29.83 in 10.0 mi NNE 13.8 mph - N/A   Clear
4:21 PM 46.4 °F 40.4 °F 41.0 °F 81% 29.82 in 10.0 mi North 13.8 mph - N/A   Clear
4:41 PM 46.4 °F 40.4 °F 39.2 °F 76% 29.83 in 10.0 mi North 13.8 mph - N/A   Clear
5:01 PM 46.4 °F 39.5 °F 39.2 °F 76% 29.84 in 10.0 mi North 17.3 mph - N/A   Clear
5:21 PM 44.6 °F 37.8 °F 39.2 °F 81% 29.83 in 10.0 mi North 15.0 mph - N/A   Clear
5:41 PM 44.6 °F 37.2 °F 39.2 °F 81% 29.84 in 10.0 mi North 17.3 mph 20.7 mph N/A   Clear
6:01 PM 44.6 °F 36.9 °F 39.2 °F 81% 29.84 in 10.0 mi North 18.4 mph - N/A   Clear
6:21 PM 42.8 °F 34.5 °F 39.2 °F 87% 29.84 in 10.0 mi North 18.4 mph - N/A   Clear
7:01 PM 41.0 °F 32.2 °F 37.4 °F 87% 29.86 in 10.0 mi North 18.4 mph - N/A   Clear
7:21 PM 39.2 °F 30.5 °F 37.4 °F 93% 29.86 in 10.0 mi North 16.1 mph - N/A   Clear
7:41 PM 37.4 °F 26.9 °F 37.4 °F 100% 29.85 in 10.0 mi North 20.7 mph - N/A   Scattered Clouds
8:01 PM 37.4 °F 27.2 °F 37.4 °F 100% 29.85 in 10.0 mi North 19.6 mph - N/A   Scattered Clouds
8:21 PM 37.4 °F 27.2 °F 35.6 °F 93% 29.85 in 10.0 mi North 19.6 mph - N/A   Scattered Clouds
8:41 PM 35.6 °F 25.9 °F 35.6 °F 100% 29.86 in 10.0 mi North 16.1 mph - N/A   Scattered Clouds
9:01 PM 35.6 °F 25.2 °F 35.6 °F 100% 29.87 in 10.0 mi North 18.4 mph - N/A   Clear
9:21 PM 35.6 °F 26.2 °F 35.6 °F 100% 29.87 in 10.0 mi North 15.0 mph - N/A   Clear
9:41 PM 35.6 °F 25.5 °F 35.6 °F 100% 29.85 in 10.0 mi North 17.3 mph - N/A   Clear
10:01 PM 35.6 °F 25.2 °F 35.6 °F 100% 29.84 in 10.0 mi North 18.4 mph 24.2 mph N/A   Clear
10:41 PM 35.6 °F 25.9 °F 35.6 °F 100% 29.85 in 10.0 mi North 16.1 mph - N/A   Clear
11:01 PM 35.6 °F 25.5 °F 35.6 °F 100% 29.85 in 10.0 mi North 17.3 mph - N/A   Clear
11:21 PM 35.6 °F 24.5 °F 35.6 °F 100% 29.83 in 10.0 mi North 20.7 mph - N/A   Clear
11:41 PM 35.6 °F 25.2 °F 35.6 °F 100% 29.83 in 10.0 mi NNE 18.4 mph - N/A   Clear